Time,TemperatureF,DewpointF,PressureIn,WindDirection,WindDirectionDegrees,WindSpeedMPH,WindSpeedGustMPH,Humidity,HourlyPrecipIn,Conditions,Clouds,dailyrainin,SoftwareType,DateUTC
2013-06-27 00:00:00,64.3,56.2,24.27,North,0,0.0,-999.0,75,0.00,,,0.00,,2013-06-27 07:00:00,
2013-06-27 01:00:00,64.1,56.0,24.26,North,0,0.0,-999.0,75,0.00,,,0.00,,2013-06-27 08:00:00,
2013-06-27 02:00:00,63.7,56.0,24.26,North,0,0.0,-999.0,76,0.00,,,0.00,,2013-06-27 09:00:00,
2013-06-27 03:00:00,63.0,56.0,24.26,North,0,0.0,-999.0,78,0.00,,,0.00,,2013-06-27 10:00:00,
2013-06-27 04:00:00,60.1,54.0,24.26,North,0,0.0,-999.0,80,0.00,,,0.00,,2013-06-27 11:00:00,
2013-06-27 05:00:00,61.2,55.1,24.26,North,0,0.0,-999.0,80,0.00,,,0.00,,2013-06-27 12:00:00,
2013-06-27 06:00:00,61.4,55.2,24.28,North,0,0.0,-999.0,80,0.00,,,0.00,,2013-06-27 13:00:00,
2013-06-27 07:05:00,62.1,54.8,24.28,North,0,0.0,-999.0,77,0.00,,,0.00,,2013-06-27 14:05:00,
2013-06-27 08:05:00,64.3,55.8,0.00,North,0,0.0,-999.0,74,0.00,,,0.00,,2013-06-27 15:05:00,
2013-06-27 09:05:00,80.3,58.8,0.00,North,0,0.0,-999.0,48,0.00,,,0.00,,2013-06-27 16:05:00,
2013-06-27 10:05:00,78.1,57.4,0.00,North,0,0.0,-999.0,49,0.00,,,0.00,,2013-06-27 17:05:00,
2013-06-27 11:05:00,79.2,57.2,0.00,North,0,0.0,-999.0,47,0.00,,,0.00,,2013-06-27 18:05:00,
2013-06-27 12:05:00,83.9,55.5,0.00,North,0,0.0,-999.0,38,0.00,,,0.00,,2013-06-27 19:05:00,
2013-06-27 13:05:00,85.1,60.1,0.00,North,0,0.0,-999.0,43,0.00,,,0.00,,2013-06-27 20:05:00,
2013-06-27 14:05:00,83.9,59.6,0.00,North,0,0.0,-999.0,44,0.00,,,0.00,,2013-06-27 21:05:00,
2013-06-27 15:05:00,85.0,58.1,0.00,North,0,0.0,-999.0,40,0.00,,,0.00,,2013-06-27 22:05:00,
2013-06-27 16:05:00,80.8,58.6,0.00,North,0,0.0,-999.0,47,0.00,,,0.00,,2013-06-27 23:05:00,
2013-06-27 17:05:00,79.7,57.7,0.00,North,0,0.0,-999.0,47,0.00,,,0.00,,2013-06-28 00:05:00,
2013-06-27 18:00:00,78.1,56.2,24.29,North,0,0.0,-999.0,47,0.00,,,0.00,,2013-06-28 01:00:00,
2013-06-27 19:00:00,74.5,57.2,24.30,North,0,0.0,-999.0,55,0.00,,,0.00,,2013-06-28 02:00:00,
2013-06-27 20:00:00,71.6,57.5,24.30,North,0,0.0,-999.0,61,0.00,,,0.00,,2013-06-28 03:00:00,
2013-06-27 21:00:00,69.3,57.0,24.31,North,0,0.0,-999.0,65,0.00,,,0.00,,2013-06-28 04:00:00,
2013-06-27 22:00:00,68.8,55.6,24.32,North,0,0.0,-999.0,63,0.00,,,0.00,,2013-06-28 05:00:00,
2013-06-27 23:00:00,69.7,55.7,24.32,North,0,0.0,-999.0,61,0.00,,,0.00,,2013-06-28 06:00:00,